TimeGMT,TemperatureF,Dew PointF,Humidity,Sea Level PressureIn,VisibilityMPH,Wind Direction,Wind SpeedMPH,Gust SpeedMPH,PrecipitationIn,Events,Conditions,WindDirDegrees,DateUTC
12:10 AM,28.4,28.4,100,29.28,6.2,West,3.5,-,N/A,,Overcast,260,2013-01-21 00:10:00
12:24 AM,28.4,28.4,100,29.28,6.2,West,2.3,-,N/A,,Overcast,280,2013-01-21 00:24:00
12:31 AM,28.4,28.4,100,29.28,6.2,WNW,2.3,-,N/A,,Overcast,290,2013-01-21 00:31:00
12:36 AM,28.4,28.4,100,29.28,6.2,West,2.3,-,N/A,,Overcast,280,2013-01-21 00:36:00
12:47 AM,28.4,28.4,100,29.27,6.2,West,1.2,-,N/A,,Overcast,280,2013-01-21 00:47:00
12:53 AM,28.4,28.4,100,29.27,6.2,West,3.5,-,N/A,,Overcast,260,2013-01-21 00:53:00
12:55 AM,28.4,28.4,100,29.27,6.2,West,3.5,-,N/A,,Overcast,260,2013-01-21 00:55:00
12:58 AM,28.4,28.4,100,29.30,6.2,West,3.5,-,N/A,,Overcast,270,2013-01-21 00:58:00
1:01 AM,28.4,28.4,100,29.27,6.2,WNW,2.3,-,N/A,,Overcast,290,2013-01-21 01:01:00
1:23 AM,30.2,30.2,100,29.26,6.2,NW,2.3,-,N/A,,Overcast,320,2013-01-21 01:23:00
1:33 AM,30.2,30.2,100,29.26,6.2,NW,2.3,-,N/A,,Overcast,320,2013-01-21 01:33:00
1:52 AM,30.2,30.2,100,29.26,6.2,NNW,2.3,-,N/A,,Overcast,330,2013-01-21 01:52:00
1:58 AM,30.0,29.8,99,29.29,6.2,NW,2.3,-,N/A,,Overcast,320,2013-01-21 01:58:00
2:11 AM,30.2,30.2,100,29.26,6.2,Variable,1.2,-,N/A,,Overcast,0,2013-01-21 02:11:00
2:19 AM,28.4,28.4,100,29.26,6.2,Variable,2.3,-,N/A,,Overcast,0,2013-01-21 02:19:00
2:58 AM,29.1,28.9,99,29.29,6.2,SW,2.3,-,N/A,,Overcast,230,2013-01-21 02:58:00
3:11 AM,28.4,28.4,100,29.26,6.2,SW,3.5,-,N/A,,Overcast,220,2013-01-21 03:11:00
3:37 AM,28.4,28.4,100,29.25,6.2,WSW,3.5,-,N/A,,Overcast,240,2013-01-21 03:37:00
3:40 AM,28.4,28.4,100,29.25,6.2,WSW,3.5,-,N/A,,Overcast,240,2013-01-21 03:40:00
3:42 AM,28.4,28.4,100,29.25,6.2,WSW,3.5,-,N/A,,Overcast,240,2013-01-21 03:42:00
3:58 AM,28.9,28.8,99,29.28,6.2,West,3.5,-,N/A,,Overcast,260,2013-01-21 03:58:00
4:12 AM,28.4,28.4,100,29.25,6.2,NW,3.5,-,N/A,,Overcast,310,2013-01-21 04:12:00
4:27 AM,28.4,28.4,100,29.25,6.2,West,3.5,-,N/A,,Overcast,260,2013-01-21 04:27:00
4:32 AM,28.4,28.4,100,29.25,6.2,WSW,3.5,-,N/A,,Overcast,250,2013-01-21 04:32:00
4:35 AM,28.4,28.4,100,29.25,6.2,WSW,3.5,-,N/A,,Overcast,240,2013-01-21 04:35:00
4:39 AM,28.4,28.4,100,29.25,6.2,WSW,2.3,-,N/A,,Overcast,240,2013-01-21 04:39:00
4:41 AM,28.4,28.4,100,29.25,6.2,WSW,2.3,-,N/A,,Overcast,240,2013-01-21 04:41:00
4:53 AM,30.2,28.4,93,29.25,6.2,WSW,1.2,-,N/A,,Overcast,250,2013-01-21 04:53:00
4:57 AM,30.2,28.4,93,29.25,6.2,West,2.3,-,N/A,,Overcast,260,2013-01-21 04:57:00
4:58 AM,29.3,29.1,99,29.28,6.2,West,2.3,-,N/A,,Overcast,260,2013-01-21 04:58:00
5:04 AM,28.4,28.4,100,29.25,6.2,West,2.3,-,N/A,,Overcast,260,2013-01-21 05:04:00
5:08 AM,28.4,28.4,100,29.25,6.2,West,2.3,-,N/A,,Overcast,260,2013-01-21 05:08:00
5:09 AM,28.4,28.4,100,29.25,6.2,West,2.3,-,N/A,,Overcast,260,2013-01-21 05:09:00
5:16 AM,28.4,28.4,100,29.25,6.2,West,3.5,-,N/A,,Overcast,270,2013-01-21 05:16:00
5:27 AM,28.4,28.4,100,29.25,6.2,West,3.5,-,N/A,,Overcast,270,2013-01-21 05:27:00
5:35 AM,28.4,28.4,100,29.25,6.2,WNW,2.3,-,N/A,,Overcast,290,2013-01-21 05:35:00
5:37 AM,28.4,28.4,100,29.25,6.2,NW,1.2,-,N/A,,Overcast,310,2013-01-21 05:37:00
5:38 AM,28.4,28.4,100,29.25,6.2,NNW,1.2,-,N/A,,Overcast,330,2013-01-21 05:38:00
5:43 AM,28.4,28.4,100,29.25,6.2,NW,1.2,-,N/A,,Overcast,320,2013-01-21 05:43:00
5:46 AM,28.4,28.4,100,29.25,6.2,NW,1.2,-,N/A,,Overcast,310,2013-01-21 05:46:00
5:48 AM,28.4,28.4,100,29.25,6.2,NNW,1.2,-,N/A,,Overcast,330,2013-01-21 05:48:00
6:17 AM,28.4,28.4,100,29.25,6.2,Calm,Calm,-,N/A,,Scattered Clouds,0,2013-01-21 06:17:00
6:30 AM,26.6,24.8,93,29.25,-9999.0,Calm,Calm,-,N/A,,Partly Cloudy,0,2013-01-21 06:30:00
6:31 AM,24.8,24.8,100,29.25,-9999.0,Calm,Calm,-,N/A,,Partly Cloudy,0,2013-01-21 06:31:00
6:32 AM,24.8,24.8,100,29.25,1.5,Calm,Calm,-,N/A,,Partly Cloudy,0,2013-01-21 06:32:00
6:33 AM,24.8,24.8,100,29.25,1.2,Calm,Calm,-,N/A,,Clear,0,2013-01-21 06:33:00
6:34 AM,24.8,24.8,100,29.25,1.0,Calm,Calm,-,N/A,,Clear,0,2013-01-21 06:34:00
6:35 AM,24.8,23.0,93,29.25,0.7,Calm,Calm,-,N/A,,Clear,0,2013-01-21 06:35:00
6:37 AM,23.0,23.0,100,29.25,0.5,SW,1.2,-,N/A,Fog,Light Freezing Fog,220,2013-01-21 06:37:00
6:41 AM,23.0,21.2,93,29.26,0.2,WSW,2.3,-,N/A,Fog,Light Freezing Fog,250,2013-01-21 06:41:00
6:51 AM,24.8,23.0,93,29.26,0.5,West,2.3,-,N/A,Fog,Light Freezing Fog,280,2013-01-21 06:51:00
6:56 AM,24.8,24.8,100,29.26,0.7,West,2.3,-,N/A,,Clear,270,2013-01-21 06:56:00
6:58 AM,24.4,24.3,99,29.29,0.7,West,2.3,-,N/A,,Clear,270,2013-01-21 06:58:00
7:00 AM,23.0,23.0,100,29.26,0.5,West,2.3,-,N/A,Fog,Light Freezing Fog,260,2013-01-21 07:00:00
7:03 AM,19.4,19.4,100,29.26,0.2,West,3.5,-,N/A,Fog,Light Freezing Fog,270,2013-01-21 07:03:00
7:08 AM,17.6,17.6,100,29.26,-9999.0,WSW,4.6,-,N/A,Fog,Light Freezing Fog,250,2013-01-21 07:08:00
7:16 AM,21.2,19.4,93,29.27,0.2,WSW,2.3,-,N/A,Fog,Light Freezing Fog,250,2013-01-21 07:16:00
7:29 AM,21.2,21.2,100,29.27,0.2,WNW,1.2,-,N/A,Fog,Light Freezing Fog,300,2013-01-21 07:29:00
7:34 AM,21.2,19.4,93,29.27,0.2,SW,1.2,-,N/A,Fog,Light Freezing Fog,230,2013-01-21 07:34:00
7:42 AM,21.2,21.2,100,29.27,-9999.0,Calm,Calm,-,N/A,Fog,Light Freezing Fog,350,2013-01-21 07:42:00
7:52 AM,21.2,21.2,100,29.28,-9999.0,WSW,2.3,-,N/A,Fog,Light Freezing Fog,240,2013-01-21 07:52:00
7:58 AM,22.1,21.9,99,29.31,-9999.0,WSW,3.5,-,N/A,Fog,Light Freezing Fog,240,2013-01-21 07:58:00
8:45 AM,26.6,24.8,93,29.30,-9999.0,WNW,2.3,-,N/A,Fog-Snow,Light Freezing Fog,290,2013-01-21 08:45:00
8:49 AM,26.6,24.8,93,29.30,0.2,WNW,2.3,-,N/A,Fog-Snow,Light Freezing Fog,290,2013-01-21 08:49:00
8:53 AM,26.6,26.6,100,29.30,0.2,West,2.3,-,N/A,Fog-Snow,Light Freezing Fog,280,2013-01-21 08:53:00
8:54 AM,26.6,26.6,100,29.30,0.5,West,2.3,-,N/A,Fog-Snow,Light Freezing Fog,280,2013-01-21 08:54:00
8:56 AM,26.6,26.6,100,29.30,0.5,West,3.5,-,N/A,Fog-Snow,Light Freezing Fog,280,2013-01-21 08:56:00
8:58 AM,26.6,26.6,100,29.33,0.5,West,3.5,-,0.00,Fog-Snow,Light Freezing Fog,280,2013-01-21 08:58:00
8:59 AM,26.6,26.6,100,29.30,0.7,West,3.5,-,N/A,Snow,Light Snow,280,2013-01-21 08:59:00
9:01 AM,26.6,26.6,100,29.30,0.7,West,2.3,-,N/A,Snow,Light Snow,280,2013-01-21 09:01:00
9:02 AM,26.6,26.6,100,29.30,1.0,West,2.3,-,N/A,Snow,Light Snow,280,2013-01-21 09:02:00
9:07 AM,26.6,26.6,100,29.30,1.2,WNW,3.5,-,N/A,Snow,Light Snow,290,2013-01-21 09:07:00
9:15 AM,26.6,26.6,100,29.30,1.2,WNW,2.3,-,N/A,Snow,Light Snow,290,2013-01-21 09:15:00
9:16 AM,26.6,26.6,100,29.30,1.2,WNW,2.3,-,N/A,Snow,Light Snow,290,2013-01-21 09:16:00
9:18 AM,26.6,26.6,100,29.31,1.2,WNW,2.3,-,N/A,Snow,Light Snow,290,2013-01-21 09:18:00
9:39 AM,28.4,28.4,100,29.31,1.0,Calm,Calm,-,N/A,Snow,Light Snow,330,2013-01-21 09:39:00
9:58 AM,27.9,27.7,99,29.34,1.0,South,2.3,-,0.00,Snow,Light Snow,180,2013-01-21 09:58:00
10:00 AM,28.4,28.4,100,29.31,1.2,South,2.3,-,N/A,Snow,Light Snow,190,2013-01-21 10:00:00
10:01 AM,28.4,28.4,100,29.31,1.2,SSW,3.5,-,N/A,,Overcast,200,2013-01-21 10:01:00
10:02 AM,28.4,28.4,100,29.31,1.2,SSW,3.5,-,N/A,,Overcast,200,2013-01-21 10:02:00
10:08 AM,28.4,28.4,100,29.31,1.2,SSW,3.5,-,N/A,,Overcast,200,2013-01-21 10:08:00
10:10 AM,28.4,28.4,100,29.31,1.2,SSW,3.5,-,N/A,,Overcast,200,2013-01-21 10:10:00
10:11 AM,28.4,28.4,100,29.31,1.2,SSW,3.5,-,N/A,,Overcast,210,2013-01-21 10:11:00
10:22 AM,28.4,28.4,100,29.31,1.2,SSW,2.3,-,N/A,,Overcast,210,2013-01-21 10:22:00
10:36 AM,30.2,30.2,100,29.32,1.2,South,4.6,-,N/A,,Overcast,190,2013-01-21 10:36:00
10:37 AM,30.2,30.2,100,29.32,1.2,South,4.6,-,N/A,,Overcast,190,2013-01-21 10:37:00
10:38 AM,30.2,30.2,100,29.32,1.2,South,3.5,-,N/A,,Overcast,190,2013-01-21 10:38:00
10:44 AM,30.2,30.2,100,29.32,1.2,SSW,3.5,-,N/A,,Overcast,200,2013-01-21 10:44:00
10:48 AM,30.2,30.2,100,29.32,1.2,SSW,3.5,-,N/A,,Overcast,210,2013-01-21 10:48:00
10:49 AM,30.2,30.2,100,29.32,1.2,SSW,3.5,-,N/A,,Overcast,210,2013-01-21 10:49:00
10:50 AM,30.2,30.2,100,29.32,1.5,SSW,3.5,-,N/A,,Overcast,210,2013-01-21 10:50:00
10:52 AM,30.2,30.2,100,29.32,1.5,SSW,3.5,-,N/A,,Overcast,210,2013-01-21 10:52:00
10:57 AM,30.2,30.2,100,29.32,1.7,SSW,5.8,-,N/A,,Overcast,210,2013-01-21 10:57:00
10:58 AM,30.2,29.8,99,29.35,1.7,SSW,5.8,-,0.00,,Overcast,210,2013-01-21 10:58:00
11:00 AM,32.0,30.2,93,29.32,-9999.0,SSW,5.8,-,N/A,,Overcast,210,2013-01-21 11:00:00
11:02 AM,32.0,30.2,93,29.32,2.5,SW,5.8,-,N/A,,Overcast,220,2013-01-21 11:02:00
11:07 AM,32.0,30.2,93,29.32,3.7,SW,5.8,-,N/A,,Overcast,220,2013-01-21 11:07:00
11:12 AM,32.0,30.2,93,29.32,5.0,SW,6.9,-,N/A,,Overcast,220,2013-01-21 11:12:00
11:13 AM,32.0,32.0,100,29.32,5.0,SW,5.8,-,N/A,,Overcast,220,2013-01-21 11:13:00
11:26 AM,32.0,32.0,100,29.32,3.7,SW,5.8,-,N/A,,Overcast,230,2013-01-21 11:26:00
11:58 AM,30.9,30.7,99,29.35,5.6,SSW,8.1,-,N/A,,Overcast,210,2013-01-21 11:58:00
12:28 PM,32.0,32.0,100,29.33,6.2,SW,5.8,-,N/A,,Overcast,230,2013-01-21 12:28:00
12:49 PM,32.0,32.0,100,29.33,6.2,WSW,5.8,-,N/A,,Overcast,240,2013-01-21 12:49:00
12:58 PM,32.2,32.0,99,29.37,6.2,WSW,6.9,-,N/A,,Overcast,240,2013-01-21 12:58:00
1:22 PM,32.0,32.0,100,29.33,6.2,SSW,8.1,-,N/A,,Overcast,210,2013-01-21 13:22:00
1:58 PM,32.9,32.4,98,29.36,6.2,SW,6.9,-,0.01,,Overcast,220,2013-01-21 13:58:00
2:58 PM,32.9,32.2,97,29.38,6.2,SSW,4.6,-,0.01,,Overcast,210,2013-01-21 14:58:00
3:54 PM,32.0,32.0,100,29.36,6.2,SW,3.5,-,N/A,,Overcast,220,2013-01-21 15:54:00
3:55 PM,32.0,32.0,100,29.36,6.2,SW,3.5,-,N/A,,Overcast,220,2013-01-21 15:55:00
3:58 PM,31.8,31.3,98,29.39,6.2,SW,3.5,-,N/A,,Overcast,220,2013-01-21 15:58:00
4:01 PM,32.0,32.0,100,29.36,6.2,SW,3.5,-,N/A,,Overcast,230,2013-01-21 16:01:00
4:11 PM,32.0,32.0,100,29.37,6.2,SW,3.5,-,N/A,,Overcast,220,2013-01-21 16:11:00
4:13 PM,32.0,32.0,100,29.37,6.2,SW,3.5,-,N/A,,Overcast,220,2013-01-21 16:13:00
4:20 PM,32.0,32.0,100,29.37,6.2,SSW,3.5,-,N/A,,Overcast,210,2013-01-21 16:20:00
4:23 PM,32.0,32.0,100,29.37,6.2,SSW,3.5,-,N/A,,Overcast,200,2013-01-21 16:23:00
4:31 PM,32.0,32.0,100,29.38,6.2,SSW,2.3,-,N/A,,Overcast,210,2013-01-21 16:31:00
4:34 PM,32.0,32.0,100,29.38,6.2,SSW,2.3,-,N/A,,Overcast,200,2013-01-21 16:34:00
4:40 PM,32.0,32.0,100,29.38,6.2,SSW,2.3,-,N/A,,Overcast,200,2013-01-21 16:40:00
4:58 PM,31.5,30.9,98,29.41,6.2,South,3.5,-,N/A,,Mostly Cloudy,190,2013-01-21 16:58:00
5:02 PM,32.0,32.0,100,29.38,6.2,South,3.5,-,N/A,,Scattered Clouds,180,2013-01-21 17:02:00
5:26 PM,26.6,26.6,100,29.39,6.2,SSW,4.6,-,N/A,,Mostly Cloudy,200,2013-01-21 17:26:00
5:58 PM,28.9,28.8,99,29.43,6.2,SSW,8.1,-,N/A,,Overcast,200,2013-01-21 17:58:00
6:04 PM,30.2,30.2,100,29.40,6.2,SSW,8.1,-,N/A,,Overcast,200,2013-01-21 18:04:00
6:58 PM,32.4,31.3,96,29.44,6.2,South,10.4,-,N/A,,Overcast,190,2013-01-21 18:58:00
7:20 PM,32.0,32.0,100,29.42,6.2,SSW,8.1,-,N/A,,Overcast,200,2013-01-21 19:20:00
7:21 PM,32.0,32.0,100,29.42,6.2,SSW,8.1,-,N/A,,Overcast,200,2013-01-21 19:21:00
7:45 PM,32.0,32.0,100,29.42,6.2,SSW,8.1,-,N/A,,Overcast,200,2013-01-21 19:45:00
7:49 PM,32.0,32.0,100,29.42,6.2,South,8.1,-,N/A,,Overcast,190,2013-01-21 19:49:00
7:58 PM,32.7,31.1,94,29.45,6.2,South,6.9,-,0.00,,Overcast,190,2013-01-21 19:58:00
8:01 PM,32.0,32.0,100,29.42,6.2,South,6.9,-,N/A,,Overcast,190,2013-01-21 20:01:00
8:09 PM,32.0,32.0,100,29.42,6.2,South,6.9,-,N/A,,Overcast,180,2013-01-21 20:09:00
8:21 PM,32.0,32.0,100,29.42,6.2,South,5.8,-,N/A,,Overcast,190,2013-01-21 20:21:00
8:35 PM,32.0,32.0,100,29.43,6.2,South,4.6,-,N/A,,Overcast,180,2013-01-21 20:35:00
8:58 PM,32.5,31.1,94,29.45,6.2,South,9.2,-,0.00,,Overcast,170,2013-01-21 20:58:00
8:59 PM,32.0,32.0,100,29.42,6.2,South,8.1,-,N/A,,Overcast,170,2013-01-21 20:59:00
9:15 PM,32.0,32.0,100,29.43,6.2,South,5.8,-,N/A,,Overcast,190,2013-01-21 21:15:00
9:58 PM,32.4,30.6,93,29.46,6.2,SSE,2.3,-,N/A,,Mostly Cloudy,160,2013-01-21 21:58:00
10:06 PM,32.0,30.2,93,29.43,6.2,SSE,2.3,-,N/A,,Scattered Clouds,160,2013-01-21 22:06:00
10:29 PM,32.0,30.2,93,29.44,6.2,East,2.3,-,N/A,,Mostly Cloudy,100,2013-01-21 22:29:00
10:58 PM,31.1,29.7,94,29.47,6.2,SSE,3.5,-,N/A,,Overcast,160,2013-01-21 22:58:00
11:46 PM,32.0,30.2,93,29.45,6.2,ESE,4.6,-,N/A,,Overcast,120,2013-01-21 23:46:00
11:58 PM,31.8,30.0,93,29.48,6.2,SE,4.6,-,N/A,,Overcast,140,2013-01-21 23:58:00